Weather History for Tillamook, OR

Change the Weather History Date:

Monday, February 25, 2013

  Actual Average (KMMV) Record (KMMV)
Temperature  
Mean Temperature 44 °F 44 °F  
Max Temperature 50 °F 52 °F 68 °F (1991)
Min Temperature 39 °F 35 °F 12 °F (1920)
Degree Days  
Heating Degree Days 20 21  
Month to date heating degree days 562  
Since 1 July heating degree days 3317  
Cooling Degree Days 0 0  
Month to date cooling degree days 0  
Year to date cooling degree days 0  
Moisture  
Dew Point 39 °F    
Average Humidity 82    
Maximum Humidity 100    
Minimum Humidity 54    
Precipitation  
Precipitation 0.47 in 0.16 in 1.40 in (1896)
Month to date precipitation 3.94  
Year to date precipitation 10.04  
Sea Level Pressure  
Sea Level Pressure 30.25 in    
Wind  
Wind Speed 9 mph (SW)    
Max Wind Speed 20 mph    
Max Gust Speed 25 mph    
Visibility 8 miles    
Events Rain    
T = Trace of Precipitation, MM = Missing Value Source: NWS Daily Summary

Daily Weather History Graph

Daily Weather History Graph

Search for Another Location

Airport:

Trip Planner

Search our weather history database for the weather conditions in past years. The results will help you decide how hot, cold, wet, or windy it might be!

Date:

Astronomy

Feb. 25, 2013 Rise Set
Actual Time 7:59 AM MST 6:57 PM MST
Civil Twilight 7:30 AM MST 7:27 PM MST
Nautical Twilight 6:55 AM MST 8:01 PM MST
Astronomical Twilight 6:21 AM MST 8:35 PM MST
Moon 7:20 PM MST (2/25) 7:31 AM MST (2/25)
Length of Visible Light 11h 57m
Length of Day
10h 57m
Full, 100% of the Moon is Illuminated
Feb 25
Full
Feb 25
Full
Mar 4
Last Quarter
Mar 11
New
Mar 19
First Quarter

Hourly Weather History & Observations

Time (MST) Temp. Windchill Dew Point Humidity Pressure Visibility Wind Dir Wind Speed Gust Speed Precip Events Conditions
12:15 AM 46.4 °F 41.9 °F 42.8 °F 87% 30.05 in 4.0 mi SSE 9.2 mph - 0.02 in Rain Rain
12:35 AM 46.4 °F 43.5 °F 42.8 °F 87% 30.04 in 7.0 mi South 5.8 mph - 0.05 in Rain Rain
12:55 AM 46.4 °F 43.5 °F 44.6 °F 93% 30.04 in 5.0 mi SSW 5.8 mph - 0.09 in Rain Rain
1:15 AM 48.2 °F - 44.6 °F 87% 30.02 in 7.0 mi South 10.4 mph 18.4 mph 0.05 in Rain Rain
1:35 AM 48.2 °F - 46.4 °F 93% 30.01 in 5.0 mi SSW 13.8 mph 19.6 mph 0.11 in Rain Rain
1:55 AM 50.0 °F - 46.4 °F 87% 30.02 in 3.0 mi West 19.6 mph 25.3 mph 0.17 in Rain Rain
2:15 AM 46.4 °F 41.1 °F 42.8 °F 87% 30.06 in 10.0 mi West 11.5 mph 20.7 mph 0.01 in   Overcast
2:35 AM 46.4 °F 41.5 °F 42.8 °F 87% 30.08 in 10.0 mi West 10.4 mph - 0.01 in   Overcast
2:55 AM 46.4 °F 43.5 °F 41.0 °F 81% 30.08 in 10.0 mi WSW 5.8 mph - 0.01 in   Overcast
3:15 AM 44.6 °F 39.2 °F 41.0 °F 87% 30.09 in 10.0 mi WSW 10.4 mph - N/A   Mostly Cloudy
3:35 AM 46.4 °F 41.1 °F 41.0 °F 81% 30.10 in 5.0 mi WNW 11.5 mph 17.3 mph 0.02 in Rain Light Rain
3:55 AM 44.6 °F 40.7 °F 41.0 °F 87% 30.10 in 10.0 mi WSW 6.9 mph - 0.02 in   Overcast
4:15 AM 44.6 °F 39.2 °F 41.0 °F 87% 30.11 in 7.0 mi West 10.4 mph 20.7 mph 0.01 in Rain Light Rain
4:35 AM 44.6 °F 40.2 °F 39.2 °F 81% 30.12 in 10.0 mi SW 8.1 mph - 0.01 in   Mostly Cloudy
5:15 AM 44.6 °F 38.4 °F 39.2 °F 81% 30.13 in 7.0 mi West 12.7 mph 21.9 mph 0.01 in Rain Light Rain
5:35 AM 44.6 °F 39.2 °F 39.2 °F 81% 30.15 in 7.0 mi West 10.4 mph 17.3 mph 0.01 in   Mostly Cloudy
5:55 AM 44.6 °F 41.4 °F 39.2 °F 81% 30.15 in 10.0 mi WSW 5.8 mph - 0.02 in   Overcast
6:15 AM 44.6 °F 37.8 °F 39.2 °F 81% 30.16 in 5.0 mi West 15.0 mph 20.7 mph 0.03 in Rain Rain
6:35 AM 44.6 °F 39.7 °F 39.2 °F 81% 30.16 in 10.0 mi West 9.2 mph - 0.03 in   Overcast
6:55 AM 44.6 °F 39.7 °F 39.2 °F 81% 30.18 in 10.0 mi WSW 9.2 mph - 0.03 in   Mostly Cloudy
7:15 AM 44.6 °F 39.2 °F 39.2 °F 81% 30.19 in 7.0 mi WSW 10.4 mph 19.6 mph N/A Rain Light Rain
7:35 AM 44.6 °F 40.2 °F 37.4 °F 76% 30.20 in 10.0 mi West 8.1 mph 17.3 mph N/A   Overcast
7:55 AM 44.6 °F 39.2 °F 37.4 °F 76% 30.20 in 5.0 mi West 10.4 mph 19.6 mph 0.01 in Rain Light Rain
8:15 AM 42.8 °F 40.1 °F 37.4 °F 81% 30.21 in 10.0 mi SSE 4.6 mph - N/A   Mostly Cloudy
8:35 AM 42.8 °F 37.0 °F 39.2 °F 87% 30.22 in 10.0 mi West 10.4 mph - N/A   Overcast
8:55 AM 44.6 °F - 39.2 °F 81% 30.22 in 7.0 mi Calm Calm - N/A   Overcast
9:15 AM 44.6 °F - 39.2 °F 81% 30.23 in 10.0 mi Calm Calm - N/A   Overcast
9:35 AM 42.8 °F 38.6 °F 39.2 °F 87% 30.24 in 7.0 mi SW 6.9 mph - N/A Rain Light Rain
9:55 AM 42.8 °F 37.5 °F 39.2 °F 87% 30.25 in 7.0 mi WNW 9.2 mph - N/A   Light Drizzle
10:15 AM 44.6 °F 42.2 °F 37.4 °F 76% 30.25 in 10.0 mi South 4.6 mph - N/A   Overcast
10:35 AM 44.6 °F 42.2 °F 39.2 °F 81% 30.26 in 7.0 mi SW 4.6 mph - N/A   Overcast
10:55 AM 46.4 °F 43.5 °F 37.4 °F 71% 30.26 in 10.0 mi WSW 5.8 mph - N/A   Overcast
11:15 AM 48.2 °F - 39.2 °F 71% 30.27 in 7.0 mi South 4.6 mph - N/A   Overcast
11:35 AM 46.4 °F 39.5 °F 39.2 °F 76% 30.27 in 7.0 mi SW 17.3 mph 24.2 mph N/A Rain Light Rain
11:55 AM 46.4 °F 42.4 °F 39.2 °F 76% 30.28 in 7.0 mi WSW 8.1 mph - N/A   Overcast
12:15 PM 46.4 °F 43.5 °F 39.2 °F 76% 30.29 in 10.0 mi South 5.8 mph - N/A   Mostly Cloudy
12:35 PM 48.2 °F - 37.4 °F 66% 30.29 in 10.0 mi WSW 13.8 mph 19.6 mph N/A   Mostly Cloudy
12:55 PM 48.2 °F - 39.2 °F 71% 30.30 in 7.0 mi SW 9.2 mph 18.4 mph N/A   Overcast
1:15 PM 48.2 °F - 39.2 °F 71% 30.30 in 7.0 mi SW 9.2 mph - 0.01 in   Overcast
1:35 PM 48.2 °F - 37.4 °F 66% 30.30 in 7.0 mi West 13.8 mph 17.3 mph 0.01 in   Overcast
1:55 PM 50.0 °F - 33.8 °F 54% 30.31 in 10.0 mi West 12.7 mph 21.9 mph 0.01 in   Overcast
2:15 PM 48.2 °F - 33.8 °F 58% 30.31 in 10.0 mi West 6.9 mph - N/A   Overcast
2:35 PM 50.0 °F - 37.4 °F 62% 30.29 in 7.0 mi SW 13.8 mph - N/A   Overcast
2:55 PM 44.6 °F 38.4 °F 37.4 °F 76% 30.31 in 3.0 mi West 12.7 mph 21.9 mph 0.01 in Rain Light Rain
3:15 PM 46.4 °F 41.9 °F 41.0 °F 81% 30.31 in 10.0 mi West 9.2 mph - 0.01 in   Overcast
3:35 PM 44.6 °F 43.1 °F 39.2 °F 81% 30.31 in 5.0 mi West 3.5 mph - 0.02 in Rain Light Rain
3:55 PM 46.4 °F 42.9 °F 41.0 °F 81% 30.31 in 10.0 mi WSW 6.9 mph - 0.02 in   Mostly Cloudy
4:15 PM 46.4 °F 40.4 °F 41.0 °F 81% 30.32 in 3.0 mi WNW 13.8 mph 25.3 mph 0.02 in   Haze
4:35 PM 46.4 °F 43.5 °F 39.2 °F 76% 30.32 in 10.0 mi West 5.8 mph - 0.02 in   Overcast
4:55 PM 46.4 °F 43.5 °F 39.2 °F 76% 30.32 in 10.0 mi WSW 5.8 mph - 0.02 in   Overcast
5:15 PM 48.2 °F - 41.0 °F 76% 30.32 in 10.0 mi West 6.9 mph - N/A   Overcast
5:35 PM 46.4 °F 42.4 °F 39.2 °F 76% 30.33 in 7.0 mi NW 8.1 mph 11.5 mph N/A Rain Light Rain
5:55 PM 46.4 °F 41.1 °F 39.2 °F 76% 30.33 in 7.0 mi West 11.5 mph 16.1 mph N/A Rain Light Rain
6:15 PM 44.6 °F 39.7 °F 37.4 °F 76% 30.33 in 4.0 mi West 9.2 mph - 0.01 in Rain Light Rain
6:35 PM 42.8 °F 41.1 °F 39.2 °F 87% 30.34 in 10.0 mi West 3.5 mph - 0.01 in   Overcast
6:55 PM 42.8 °F 41.1 °F 39.2 °F 87% 30.34 in 10.0 mi WSW 3.5 mph - 0.01 in   Mostly Cloudy
7:15 PM 42.8 °F 40.1 °F 39.2 °F 87% 30.35 in 7.0 mi WSW 4.6 mph - N/A   Mostly Cloudy
7:35 PM 42.8 °F 36.6 °F 39.2 °F 87% 30.35 in 5.0 mi WNW 11.5 mph - 0.01 in Rain Rain
7:55 PM 42.8 °F - 37.4 °F 81% 30.35 in 10.0 mi Calm Calm - 0.02 in   Mostly Cloudy
8:15 PM 41.0 °F 38.0 °F 37.4 °F 87% 30.36 in 10.0 mi SE 4.6 mph - N/A   Mostly Cloudy
8:35 PM 41.0 °F 37.1 °F 37.4 °F 87% 30.36 in 7.0 mi SE 5.8 mph - N/A   Scattered Clouds
8:55 PM 39.2 °F 35.9 °F 37.4 °F 93% 30.37 in 7.0 mi SSE 4.6 mph - N/A   Scattered Clouds
9:15 PM 39.2 °F 35.9 °F 37.4 °F 93% 30.37 in 7.0 mi SSE 4.6 mph - N/A   Scattered Clouds
9:35 PM 39.2 °F 35.0 °F 39.2 °F 100% 30.37 in 7.0 mi SE 5.8 mph - N/A   Scattered Clouds
9:55 PM 39.2 °F 35.9 °F 37.4 °F 93% 30.37 in 5.0 mi SE 4.6 mph - N/A   Mostly Cloudy
10:15 PM 39.2 °F - 39.2 °F 100% 30.38 in 7.0 mi Calm Calm - N/A   Overcast
10:35 PM 39.2 °F 37.0 °F 39.2 °F 100% 30.38 in 7.0 mi SE 3.5 mph - N/A   Overcast
10:55 PM 39.2 °F 35.0 °F 39.2 °F 100% 30.38 in 7.0 mi SSE 5.8 mph - N/A   Mostly Cloudy
11:15 PM 39.2 °F 35.9 °F 39.2 °F 100% 30.38 in 7.0 mi SE 4.6 mph - N/A   Overcast
11:35 PM 39.2 °F 35.9 °F 39.2 °F 100% 30.39 in 3.0 mi ESE 4.6 mph - 0.01 in Rain Light Rain
11:55 PM 39.2 °F 35.9 °F 39.2 °F 100% 30.39 in 7.0 mi SSE 4.6 mph - 0.02 in   Light Drizzle